�������l�o���
Date,Time,MP-1(��Sv/h),MP-2(��Sv/h),MP-3(��Sv/h),MP-4(��Sv/h),MP-5(��Sv/h),MP-6(��Sv/h),MP-7(��Sv/h),MP-8(��Sv/h),����,����(m/s),���J
2024/06/21,00:00,0.506,0.776,0.488,0.959,0.706,0.317,0.554,0.511,��,2.0,��
2024/06/21,00:10,0.506,0.776,0.489,0.961,0.704,0.317,0.551,0.513,��쓌,2.0,��
2024/06/21,00:20,0.508,0.777,0.490,0.959,0.704,0.317,0.552,0.512,��쓌,2.3,��
2024/06/21,00:30,0.506,0.777,0.490,0.960,0.704,0.317,0.553,0.512,��,1.7,��
2024/06/21,00:40,0.506,0.778,0.489,0.959,0.703,0.319,0.553,0.511,��쐼,1.7,��
2024/06/21,00:50,0.505,0.777,0.489,0.959,0.704,0.318,0.555,0.511,-,CALM,��
2024/06/21,01:00,0.507,0.776,0.490,0.959,0.705,0.317,0.553,0.511,�k��,0.9,��
2024/06/21,01:10,0.506,0.777,0.490,0.959,0.705,0.317,0.553,0.511,�k�k��,2.8,��
2024/06/21,01:20,0.505,0.776,0.488,0.960,0.706,0.317,0.553,0.512,�k�k��,3.5,��
2024/06/21,01:30,0.506,0.776,0.491,0.960,0.706,0.319,0.554,0.511,�k�k��,4.2,��
2024/06/21,01:40,0.509,0.776,0.492,0.960,0.705,0.317,0.553,0.511,�k�k��,4.3,��
2024/06/21,01:50,0.507,0.778,0.489,0.960,0.705,0.317,0.552,0.512,�k�k��,4.5,��
2024/06/21,02:00,0.507,0.775,0.491,0.961,0.704,0.318,0.553,0.512,�k�k��,3.6,��
2024/06/21,02:10,0.507,0.776,0.490,0.959,0.706,0.318,0.554,0.511,�k�k��,3.4,��
2024/06/21,02:20,0.509,0.777,0.491,0.960,0.702,0.319,0.554,0.510,�k�k��,3.5,��
2024/06/21,02:30,0.508,0.776,0.490,0.959,0.704,0.317,0.554,0.512,�k�k��,3.3,��
2024/06/21,02:40,0.506,0.775,0.488,0.960,0.705,0.319,0.553,0.511,�k�k��,3.7,��
2024/06/21,02:50,0.505,0.775,0.490,0.961,0.705,0.317,0.554,0.511,�k�k��,3.3,��
2024/06/21,03:00,0.506,0.776,0.489,0.961,0.706,0.318,0.554,0.512,�k�k��,4.0,��
2024/06/21,03:10,0.505,0.774,0.490,0.960,0.706,0.317,0.554,0.513,�k��,0.8,��
2024/06/21,03:20,0.508,0.776,0.488,0.960,0.704,0.317,0.555,0.510,�k�k��,0.6,��
2024/06/21,03:30,0.507,0.776,0.490,0.960,0.705,0.318,0.557,0.509,-,CALM,��
2024/06/21,03:40,0.506,0.775,0.491,0.961,0.706,0.317,0.554,0.510,��쓌,0.9,��
2024/06/21,03:50,0.507,0.776,0.489,0.960,0.706,0.317,0.555,0.512,��쓌,0.9,��
2024/06/21,04:00,0.507,0.777,0.489,0.962,0.707,0.316,0.553,0.513,��쓌,0.8,��
2024/06/21,04:10,0.507,0.775,0.489,0.961,0.704,0.318,0.554,0.511,��,0.6,��
2024/06/21,04:20,0.507,0.775,0.491,0.961,0.704,0.319,0.555,0.512,��쓌,0.6,��
2024/06/21,04:30,0.506,0.777,0.490,0.960,0.706,0.319,0.555,0.511,��,0.8,��
2024/06/21,04:40,0.507,0.774,0.491,0.962,0.707,0.317,0.556,0.511,-,CALM,��
2024/06/21,04:50,0.507,0.775,0.490,0.960,0.704,0.315,0.557,0.513,-,CALM,��
2024/06/21,05:00,0.507,0.775,0.489,0.959,0.707,0.316,0.555,0.511,-,CALM,��
2024/06/21,05:10,0.507,0.777,0.489,0.962,0.706,0.318,0.557,0.512,-,CALM,��
2024/06/21,05:20,0.507,0.775,0.489,0.962,0.706,0.317,0.556,0.512,-,CALM,��
2024/06/21,05:30,0.508,0.777,0.491,0.961,0.704,0.316,0.555,0.512,��쓌,1.2,��
2024/06/21,05:40,0.507,0.777,0.492,0.960,0.707,0.317,0.555,0.511,�쓌,1.5,��
2024/06/21,05:50,0.507,0.776,0.491,0.961,0.705,0.317,0.556,0.512,��쓌,1.7,��
2024/06/21,06:00,0.508,0.776,0.491,0.962,0.704,0.317,0.556,0.512,�쓌,2.0,��
2024/06/21,06:10,0.506,0.778,0.490,0.962,0.704,0.318,0.556,0.512,�쓌,2.0,��
2024/06/21,06:20,0.507,0.777,0.490,0.960,0.705,0.317,0.555,0.511,���쓌,1.5,��
2024/06/21,06:30,0.507,0.776,0.491,0.961,0.706,0.317,0.555,0.512,���쓌,0.9,��
2024/06/21,06:40,0.506,0.776,0.491,0.960,0.704,0.315,0.555,0.510,�쓌,1.2,��
2024/06/21,06:50,0.506,0.779,0.489,0.959,0.705,0.315,0.555,0.511,-,CALM,��
2024/06/21,07:00,0.506,0.777,0.490,0.960,0.707,0.315,0.554,0.512,��쓌,0.9,��
2024/06/21,07:10,0.506,0.777,0.490,0.959,0.705,0.315,0.555,0.511,-,CALM,��
2024/06/21,07:20,0.506,0.779,0.491,0.960,0.705,0.316,0.555,0.512,-,CALM,��
2024/06/21,07:30,0.506,0.778,0.489,0.960,0.705,0.316,0.556,0.512,��,0.9,��
2024/06/21,07:40,0.505,0.777,0.491,0.961,0.704,0.317,0.557,0.511,�k��,0.8,��
2024/06/21,07:50,0.504,0.776,0.489,0.962,0.705,0.316,0.555,0.510,�쓌,1.4,��
2024/06/21,08:00,0.504,0.775,0.489,0.960,0.705,0.316,0.554,0.512,�쓌,1.9,��
2024/06/21,08:10,0.506,0.775,0.490,0.959,0.704,0.315,0.554,0.511,��쓌,1.9,��
2024/06/21,08:20,0.505,0.773,0.489,0.960,0.705,0.316,0.554,0.512,��쓌,2.0,��
2024/06/21,08:30,0.505,0.772,0.492,0.960,0.705,0.314,0.554,0.510,��쓌,2.6,��
2024/06/21,08:40,0.503,0.771,0.490,0.958,0.704,0.315,0.555,0.511,��쓌,2.5,��
2024/06/21,08:50,0.503,0.773,0.487,0.958,0.703,0.314,0.555,0.509,��,4.8,��
2024/06/21,09:00,0.504,0.774,0.489,0.958,0.703,0.313,0.554,0.509,��,5.4,��
2024/06/21,09:10,0.504,0.774,0.488,0.959,0.703,0.314,0.554,0.508,��,5.8,��
2024/06/21,09:20,0.505,0.775,0.488,0.961,0.704,0.314,0.554,0.509,��,5.5,��
2024/06/21,09:30,0.505,0.774,0.488,0.959,0.703,0.313,0.554,0.511,��,6.3,��
2024/06/21,09:40,0.504,0.773,0.487,0.960,0.704,0.315,0.556,0.510,��,6.1,��
2024/06/21,09:50,0.504,0.773,0.487,0.957,0.705,0.315,0.556,0.511,��,6.6,��
2024/06/21,10:00,0.504,0.775,0.489,0.958,0.704,0.314,0.557,0.510,��,6.0,��
2024/06/21,10:10,0.505,0.772,0.489,0.958,0.703,0.316,0.556,0.510,��,5.6,��
2024/06/21,10:20,0.506,0.773,0.487,0.961,0.705,0.315,0.554,0.511,��,6.3,��
2024/06/21,10:30,0.504,0.773,0.487,0.961,0.704,0.314,0.555,0.509,��,6.2,��
2024/06/21,10:40,0.505,0.775,0.489,0.959,0.703,0.315,0.555,0.510,��,5.7,��
2024/06/21,10:50,0.505,0.773,0.488,0.958,0.705,0.315,0.555,0.509,��,7.1,��
2024/06/21,11:00,0.505,0.773,0.488,0.957,0.704,0.316,0.555,0.510,��,7.5,��
2024/06/21,11:10,0.504,0.775,0.488,0.961,0.704,0.315,0.552,0.510,��,7.6,��
2024/06/21,11:20,0.506,0.774,0.487,0.957,0.705,0.315,0.552,0.509,��,7.9,��
2024/06/21,11:30,0.504,0.773,0.488,0.961,0.705,0.315,0.553,0.510,��,7.1,��
2024/06/21,11:40,0.504,0.774,0.487,0.961,0.704,0.316,0.553,0.509,��쓌,7.8,��
2024/06/21,11:50,0.505,0.775,0.488,0.960,0.704,0.315,0.552,0.509,��,7.8,��
2024/06/21,12:00,0.504,0.774,0.489,0.960,0.706,0.316,0.553,0.508,��,7.5,��
2024/06/21,12:10,0.503,0.775,0.489,0.961,0.704,0.316,0.551,0.509,��,8.0,��
2024/06/21,12:20,0.505,0.772,0.489,0.959,0.706,0.315,0.551,0.510,��,8.7,��
2024/06/21,12:30,0.505,0.774,0.488,0.960,0.707,0.314,0.552,0.508,��,8.9,��
2024/06/21,12:40,0.504,0.772,0.489,0.959,0.702,0.314,0.551,0.508,��,6.7,��
2024/06/21,12:50,0.505,0.772,0.490,0.960,0.706,0.316,0.550,0.509,��,7.0,��
2024/06/21,13:00,0.505,0.773,0.487,0.962,0.703,0.315,0.552,0.510,��,6.2,��
2024/06/21,13:10,0.504,0.776,0.487,0.960,0.704,0.315,0.551,0.511,��,6.5,��
2024/06/21,13:20,0.505,0.774,0.490,0.960,0.705,0.315,0.552,0.510,��,7.1,��
2024/06/21,13:30,0.504,0.773,0.489,0.963,0.705,0.314,0.551,0.511,��쓌,6.8,��
2024/06/21,13:40,0.504,0.774,0.489,0.960,0.705,0.315,0.551,0.510,��,7.8,�L
2024/06/21,13:50,0.505,0.773,0.488,0.961,0.705,0.315,0.552,0.511,��,8.6,�L
2024/06/21,14:00,0.504,0.773,0.488,0.960,0.703,0.316,0.551,0.511,��,8.6,�L
2024/06/21,14:10,0.504,0.774,0.489,0.960,0.706,0.315,0.551,0.510,��,8.9,�L
2024/06/21,14:20,0.504,0.774,0.490,0.959,0.706,0.315,0.553,0.511,��,9.3,�L
2024/06/21,14:30,0.506,0.775,0.490,0.960,0.707,0.315,0.551,0.511,��,8.2,�L
2024/06/21,14:40,0.504,0.773,0.488,0.962,0.705,0.315,0.556,0.511,��쓌,8.6,�L
2024/06/21,14:50,0.503,0.772,0.488,0.962,0.702,0.315,0.551,0.511,��,7.8,�L
2024/06/21,15:00,0.505,0.773,0.487,0.962,0.702,0.315,0.551,0.510,��,8.4,�L
2024/06/21,15:10,0.504,0.772,0.488,0.959,0.702,0.314,0.549,0.508,��,8.2,�L
2024/06/21,15:20,0.504,0.773,0.486,0.959,0.701,0.314,0.550,0.509,��,7.6,�L
2024/06/21,15:30,0.503,0.768,0.487,0.961,0.700,0.314,0.548,0.509,��,7.0,�L
2024/06/21,15:40,0.503,0.768,0.486,0.960,0.700,0.314,0.549,0.509,��,7.3,�L
2024/06/21,15:50,0.503,0.769,0.484,0.959,0.699,0.315,0.548,0.506,��,7.1,�L
2024/06/21,16:00,0.502,0.768,0.484,0.961,0.698,0.314,0.548,0.508,��,6.7,�L
2024/06/21,16:10,0.500,0.767,0.484,0.957,0.696,0.315,0.549,0.506,��,4.7,�L
2024/06/21,16:20,0.500,0.766,0.484,0.956,0.695,0.315,0.547,0.508,��쓌,3.4,�L
2024/06/21,16:30,0.500,0.765,0.482,0.956,0.696,0.314,0.546,0.507,�쓌,2.6,�L
2024/06/21,16:40,0.499,0.765,0.483,0.957,0.695,0.315,0.548,0.508,��쓌,2.0,�L
2024/06/21,16:50,0.500,0.764,0.485,0.956,0.694,0.314,0.547,0.506,��쓌,2.3,�L
2024/06/21,17:00,0.499,0.766,0.485,0.958,0.694,0.315,0.546,0.506,��쓌,1.7,�L
2024/06/21,17:10,0.499,0.766,0.483,0.957,0.693,0.315,0.547,0.507,��,2.2,�L
2024/06/21,17:20,0.501,0.766,0.484,0.955,0.691,0.315,0.547,0.507,��,2.3,�L
2024/06/21,17:30,0.498,0.766,0.484,0.954,0.692,0.314,0.546,0.506,�쓌,1.9,�L
2024/06/21,17:40,0.499,0.767,0.485,0.955,0.692,0.314,0.547,0.506,��쓌,2.6,�L
2024/06/21,17:50,0.499,0.766,0.484,0.957,0.691,0.314,0.547,0.506,�쓌,2.3,��
2024/06/21,18:00,0.500,0.766,0.483,0.954,0.693,0.313,0.548,0.507,���쓌,0.8,��
2024/06/21,18:10,0.500,0.764,0.484,0.955,0.693,0.313,0.547,0.507,�k�k��,1.1,��
2024/06/21,18:20,0.498,0.765,0.485,0.953,0.695,0.312,0.548,0.508,��,3.6,�L
2024/06/21,18:30,0.499,0.766,0.484,0.954,0.693,0.314,0.550,0.508,��,4.4,��
2024/06/21,18:40,0.499,0.768,0.483,0.955,0.693,0.313,0.549,0.508,���k��,3.7,�L
2024/06/21,18:50,0.500,0.765,0.484,0.955,0.695,0.314,0.547,0.509,�k��,3.0,��
2024/06/21,19:00,0.498,0.765,0.483,0.954,0.695,0.313,0.550,0.507,�k��,2.6,��
2024/06/21,19:10,0.500,0.766,0.484,0.955,0.694,0.313,0.548,0.508,�k�k��,2.5,��
2024/06/21,19:20,0.499,0.766,0.483,0.954,0.695,0.313,0.549,0.508,�k,3.5,��
2024/06/21,19:30,0.500,0.764,0.483,0.955,0.695,0.314,0.548,0.509,�k,4.2,��
2024/06/21,19:40,0.499,0.765,0.483,0.955,0.694,0.314,0.550,0.510,�k,4.9,��
2024/06/21,19:50,0.501,0.765,0.483,0.952,0.695,0.313,0.552,0.508,�k,6.0,��
2024/06/21,20:00,0.500,0.765,0.483,0.955,0.695,0.314,0.552,0.509,�k�k��,6.8,��
2024/06/21,20:10,0.501,0.765,0.483,0.954,0.694,0.314,0.550,0.509,�k�k��,7.6,��
2024/06/21,20:20,0.500,0.766,0.483,0.953,0.694,0.314,0.552,0.509,�k�k��,6.9,��
2024/06/21,20:30,0.500,0.764,0.484,0.952,0.693,0.314,0.552,0.510,�k�k��,6.2,��
2024/06/21,20:40,0.502,0.767,0.483,0.953,0.695,0.314,0.552,0.509,�k�k��,7.7,��
2024/06/21,20:50,0.499,0.764,0.483,0.954,0.694,0.314,0.552,0.509,�k�k��,8.4,��
2024/06/21,21:00,0.500,0.763,0.482,0.953,0.696,0.314,0.551,0.508,�k,7.8,��
2024/06/21,21:10,0.500,0.764,0.483,0.954,0.692,0.312,0.552,0.507,�k,6.6,��
2024/06/21,21:20,0.500,0.764,0.482,0.954,0.693,0.313,0.552,0.509,�k�k��,6.5,��
2024/06/21,21:30,0.501,0.765,0.481,0.954,0.695,0.314,0.552,0.508,�k�k��,7.7,��
2024/06/21,21:40,0.498,0.765,0.481,0.956,0.693,0.314,0.552,0.509,�k�k��,6.6,��
2024/06/21,21:50,0.499,0.766,0.482,0.956,0.694,0.313,0.552,0.508,�k,5.8,��
2024/06/21,22:00,0.498,0.764,0.483,0.952,0.693,0.313,0.552,0.509,�k�k��,4.7,��
2024/06/21,22:10,0.501,0.765,0.483,0.955,0.695,0.314,0.549,0.508,�k�k��,4.7,��
2024/06/21,22:20,0.500,0.766,0.481,0.953,0.693,0.313,0.552,0.508,�k,5.7,��
2024/06/21,22:30,0.499,0.766,0.481,0.956,0.694,0.314,0.552,0.509,�k,5.5,��
2024/06/21,22:40,0.501,0.765,0.482,0.955,0.695,0.314,0.552,0.509,�k�k��,5.0,��
2024/06/21,22:50,0.500,0.764,0.483,0.956,0.696,0.314,0.552,0.509,�k,5.9,��
2024/06/21,23:00,0.500,0.766,0.483,0.956,0.694,0.313,0.551,0.510,�k�k��,5.3,��
2024/06/21,23:10,0.501,0.767,0.481,0.954,0.694,0.313,0.552,0.510,�k�k��,5.3,��
2024/06/21,23:20,0.500,0.767,0.482,0.955,0.693,0.313,0.551,0.508,�k�k��,5.6,��
2024/06/21,23:30,0.500,0.763,0.483,0.957,0.695,0.312,0.551,0.509,�k�k��,4.8,��
2024/06/21,23:40,0.499,0.766,0.482,0.956,0.693,0.314,0.550,0.509,�k,4.3,��
2024/06/21,23:50,0.500,0.766,0.482,0.955,0.694,0.313,0.551,0.509,�k�k��,5.1,��
